This demonstration page uses our WeatherBlox Daily Observations layout. Learn more.

Left ArrowRight Arrow

38.88101, -77.10428

Hourly Observations for May 5, 2022

Temp ( °F °C ) Dew Point ( °F °C ) Humidity (%) Winds ( mph kmh ) Pressure ( in mb ) Visibility ( mi km ) Precip ( " mm )
12:52 am 00:52 Partly Cloudy 65 18.3 52 11.1 63 63 NNW 12 19 30.05 1018 10 16 0.00 0.00
1:52 am 01:52 Mostly Cloudy 62 16.7 52 11.1 70 70 NNW 9 15 30.05 1018 10 16 0.00 0.00
2:52 am 02:52 Mostly Cloudy 61 16.1 52 11.1 72 72 NNW 7 11 30.05 1018 10 16 0.00 0.00
3:52 am 03:52 Mostly Cloudy 59 15 52 11.1 78 78 N 7 11 30.07 1018 10 16 0.00 0.00
4:52 am 04:52 Mostly Cloudy 60 15.6 51 10.6 72 72 N 14 22 30.06 1018 10 16 0.00 0.00
5:52 am 05:52 Mostly Cloudy 59 15 49 9.4 69 69 N 13 20 30.06 1018 10 16 0.00 0.00
6:52 am 06:52 Partly Cloudy 59 15 49 9.4 69 69 N 7 11 30.08 1019 10 16 0.00 0.00
7:52 am 07:52 Mostly Sunny 62 16.7 50 10 65 65 N 9 15 30.10 1019 10 16 0.00 0.00
8:52 am 08:52 Mostly Cloudy 63 17.2 50 10 63 63 N 13 20 30.13 1020 10 16 0.00 0.00
9:52 am 09:52 Mostly Cloudy 64 17.8 50 10 60 60 NE 13 20 30.12 1020 10 16 0.00 0.00
10:52 am 10:52 Cloudy 64 17.8 50 10 60 60 NNE 12 19 30.13 1020 10 16 0.00 0.00
11:52 am 11:52 Cloudy 63 17.2 51 10.6 65 65 NE 9 15 30.13 1020 10 16 0.00 0.00
12:52 pm 12:52 Cloudy 63 17.2 52 11.1 68 68 E 5 7 30.13 1020 10 16 0.00 0.00
1:52 pm 13:52 Cloudy 64 17.8 51 10.6 63 63 Calm 30.11 1020 10 16 0.00 0.00
2:52 pm 14:52 Cloudy 67 19.4 51 10.6 57 57 Calm 30.09 1019 10 16 0.00 0.00
3:52 pm 15:52 Cloudy 66 18.9 51 10.6 59 59 Calm 30.06 1018 10 16 0.00 0.00
4:52 pm 16:52 Cloudy 66 18.9 52 11.1 61 61 Calm 30.06 1018 10 16 0.00 0.00
5:52 pm 17:52 Cloudy 66 18.9 53 11.7 63 63 S 3 6 30.06 1018 10 16 0.00 0.00
6:52 pm 18:52 Cloudy 66 18.9 53 11.7 63 63 ESE 7 11 30.04 1017 10 16 0.00 0.00
7:52 pm 19:52 Cloudy 64 17.8 54 12.2 70 70 ESE 10 17 30.04 1017 10 16 0.00 0.00
8:52 pm 20:52 Cloudy 61 16.1 53 11.7 75 75 SSE 7 11 30.04 1017 10 16 0.00 0.00
9:52 pm 21:52 Mostly Cloudy 61 16.1 54 12.2 78 78 SE 5 7 30.06 1018 10 16 0.00 0.00
10:52 pm 22:52 Cloudy 61 16.1 53 11.7 75 75 SSE 5 7 30.04 1017 10 16 0.00 0.00
11:52 pm 23:52 Cloudy 61 16.1 54 12.2 78 78 SW 5 7 30.03 1017 10 16 0.00 0.00

Powered by AerisWeather